Date String (YYYY-MM-DD hh:mm:ss) UTC,Instrument flags,absolute air pressure of the measurement (hPa),sample flow rate (lpm),inlet stack bypass flow (lpm),air temperature of the measurement (°C),ambient temperature measured by the external sensor (°C),aerosol sample conditioner tube jacket temperature (°C),OPC LED temperature (°C),internal box temperature (°C),relative humidity of the measurement (%),span deviation,mass concentration of particles derived from Lorenz-Mie calculation of OPC scattering (μg/m³),mass concentration of particles derived from Lorenz-Mie calculation of OPC scattering (μg/m³),mass concentration of particles derived from Lorenz-Mie calculation of OPC scattering (μg/m³)
DateTimeUTC,F1_M11,P_M11,Q1_M11,Q2_M11,T1_M11,T2_M11,T3_M11,T4_M11,T5_M11,U1_M11,ZSPAN_M11,X0_M11,X2_M11,X1_M11
2023-07-24 22:00:00,SystemResetWarning,0833.9,4.99,000.00,028.7,026.8,000.0,036.8,030.4,26.4,0000.0,0012.51,0005.09,0004.30
2023-07-24 22:01:00,SystemResetWarning,0833.9,5.00,000.00,028.6,025.4,000.0,036.7,030.1,26.7,0000.0,0012.64,0005.09,0004.30
2023-07-24 22:02:00,SystemResetWarning,0833.8,5.00,000.00,028.5,024.9,000.0,036.7,030.0,28.3,0000.0,0013.26,0005.14,0004.30
2023-07-24 22:03:00,SystemResetWarning,0833.8,5.01,000.00,028.5,025.2,000.0,036.7,029.9,28.4,0000.0,0013.72,0005.16,0004.30
2023-07-24 22:04:00,SystemResetWarning,0833.9,5.00,000.00,028.5,025.6,000.0,036.7,029.9,27.4,0000.0,0013.74,0005.16,0004.30
2023-07-24 22:05:00,SystemResetWarning,0833.9,5.00,000.00,028.5,026.1,000.0,036.8,030.1,25.8,0000.0,0013.53,0005.15,0004.30
2023-07-24 22:06:00,SystemResetWarning,0834.0,5.00,000.00,028.5,026.6,000.0,036.8,030.2,25.7,0000.0,0013.90,0005.17,0004.28
2023-07-24 22:07:00,SystemResetWarning,0834.0,4.99,000.00,028.6,027.0,000.0,036.8,030.3,26.8,0000.0,0014.43,0005.20,0004.28
2023-07-24 22:08:00,SystemResetWarning,0834.0,4.99,000.00,028.6,026.8,000.0,036.8,030.3,26.7,0000.0,0015.52,0005.23,0004.27
2023-07-24 22:09:00,SystemResetWarning,0834.0,5.01,000.00,028.6,025.3,000.0,036.7,030.1,26.1,0000.0,0016.05,0005.19,0004.26
2023-07-24 22:10:00,SystemResetWarning,0834.0,5.01,000.00,028.5,024.8,000.0,036.6,029.9,27.2,0000.0,0014.97,0005.09,0004.25
2023-07-24 22:11:00,SystemResetWarning,0834.0,4.99,000.00,028.5,025.1,000.0,036.7,029.9,28.6,0000.0,0013.79,0005.06,0004.23
2023-07-24 22:12:00,SystemResetWarning,0834.0,4.99,000.00,028.4,025.5,000.0,036.7,029.9,28.2,0000.0,0014.79,0005.03,0004.23
2023-07-24 22:13:00,SystemResetWarning,0834.0,5.00,000.00,028.5,026.0,000.0,036.7,030.0,28.9,0000.0,0014.69,0004.96,0004.22
2023-07-24 22:14:00,SystemResetWarning,0834.1,5.01,000.00,028.5,026.5,000.0,036.8,030.2,29.4,0000.0,0015.41,0004.92,0004.20
2023-07-24 22:15:00,SystemResetWarning,0834.1,5.01,000.00,028.5,026.9,000.0,036.8,030.3,27.8,0000.0,0015.92,0004.90,0004.19
2023-07-24 22:16:00,SystemResetWarning,0834.1,4.99,000.00,028.6,027.2,000.0,036.8,030.4,27.5,0000.0,0016.83,0004.88,0004.17
2023-07-24 22:17:00,SystemResetWarning,0834.1,4.99,000.00,028.6,026.3,000.0,036.8,030.3,27.2,0000.0,0016.43,0004.85,0004.16
2023-07-24 22:18:00,SystemResetWarning,0834.2,5.01,000.00,028.6,025.1,000.0,036.7,030.0,27.7,0000.0,0016.15,0004.84,0004.14
2023-07-24 22:19:00,SystemResetWarning,0834.1,5.01,000.00,028.5,025.0,000.0,036.6,029.9,25.8,0000.0,0016.75,0004.82,0004.13
2023-07-24 22:20:00,SystemResetWarning,0834.2,4.99,000.00,028.4,025.4,000.0,036.7,029.9,25.7,0000.0,0017.07,0004.82,0004.12
2023-07-24 22:21:00,SystemResetWarning,0834.2,4.99,000.00,028.4,025.9,000.0,036.7,030.0,25.2,0000.0,0016.88,0004.81,0004.11
2023-07-24 22:22:00,SystemResetWarning,0834.5,5.00,000.00,028.5,026.3,000.0,036.8,030.1,25.0,0000.0,0016.93,0004.83,0004.09
2023-07-24 22:23:00,SystemResetWarning,0834.4,5.01,000.00,028.5,026.8,000.0,036.8,030.2,25.8,0000.0,0016.09,0004.85,0004.08
2023-07-24 22:24:00,SystemResetWarning,0834.4,5.01,000.00,028.6,027.2,000.0,036.8,030.4,29.0,0000.0,0015.80,0004.87,0004.07
2023-07-24 22:25:00,SystemResetWarning,0834.4,4.99,000.00,028.6,027.1,000.0,036.8,030.4,28.8,0000.0,0014.99,0004.86,0004.06
2023-07-24 22:26:00,SystemResetWarning,0834.4,5.00,000.00,028.6,025.7,000.0,036.7,030.1,27.4,0000.0,0014.31,0004.84,0004.06
2023-07-24 22:27:00,SystemResetWarning,0834.3,5.00,000.00,028.5,025.0,000.0,036.7,030.0,29.7,0000.0,0013.36,0004.83,0004.05
2023-07-24 22:28:00,SystemResetWarning,0834.5,5.01,000.00,028.5,025.2,000.0,036.7,029.9,29.2,0000.0,0013.28,0004.85,0004.06
2023-07-24 22:29:00,SystemResetWarning,0834.5,5.00,000.00,028.5,025.6,000.0,036.7,029.9,30.2,0000.0,0013.25,0004.85,0004.05
2023-07-24 22:30:00,SystemResetWarning,0834.3,5.00,000.00,028.5,026.1,000.0,036.8,030.1,30.1,0000.0,0012.39,0004.84,0004.05
2023-07-24 22:31:00,SystemResetWarning,0834.5,5.00,000.00,028.5,026.6,000.0,036.8,030.2,31.7,0000.0,0012.33,0004.82,0004.06
2023-07-24 22:32:00,SystemResetWarning,0834.3,4.97,000.00,028.6,027.0,000.0,036.8,030.3,34.9,0000.0,0012.75,0004.85,0004.07
2023-07-24 22:33:00,SystemResetWarning,0834.5,5.03,000.00,028.7,026.9,000.0,036.8,030.4,31.5,0000.0,0012.62,0004.84,0004.06
2023-07-24 22:34:00,SystemResetWarning,0834.6,4.98,000.00,028.8,025.5,000.0,036.7,030.3,30.3,0000.0,0012.31,0004.86,0004.07
2023-07-24 22:35:00,SystemResetWarning,0834.3,5.00,000.00,028.8,024.8,000.0,036.7,030.1,35.0,0000.0,0012.84,0004.87,0004.09
2023-07-24 22:36:00,SystemResetWarning,0834.3,5.04,000.00,028.8,025.0,000.0,036.7,030.0,34.9,0000.0,0013.17,0004.89,0004.10
2023-07-24 22:37:00,SystemResetWarning,0834.4,4.96,000.00,029.0,025.4,000.0,036.8,030.1,37.1,0000.0,0014.48,0004.90,0004.09
2023-07-24 22:38:00,SystemResetWarning,0834.3,5.03,000.00,029.3,025.9,000.0,036.8,030.3,37.2,0000.0,0014.55,0004.91,0004.09
2023-07-24 22:39:00,SystemResetWarning,0834.4,5.00,000.00,029.7,026.4,000.0,036.9,030.5,33.1,0000.0,0014.50,0004.91,0004.09
2023-07-24 22:40:00,SystemResetWarning,0834.5,4.97,000.00,030.0,026.8,000.0,037.0,030.7,30.5,0000.0,0014.56,0004.96,0004.09
2023-07-24 22:41:00,SystemResetWarning,0834.5,5.02,000.00,030.2,027.2,000.0,037.1,030.8,32.8,0000.0,0014.40,0004.99,0004.10
2023-07-24 22:42:00,SystemResetWarning,0834.5,5.00,000.00,030.4,027.1,000.0,037.3,030.8,31.0,0000.0,0014.30,0005.05,0004.09
2023-07-24 22:43:00,SystemResetWarning,0834.5,4.98,000.00,030.5,025.7,000.0,037.3,030.6,31.9,0000.0,0013.95,0005.09,0004.09
2023-07-24 22:44:00,SystemResetWarning,0834.5,5.00,000.00,030.4,024.8,000.0,037.3,030.4,34.0,0000.0,0014.17,0005.08,0004.10
2023-07-24 22:45:00,SystemResetWarning,0834.4,5.02,000.00,030.4,025.0,000.0,037.4,030.3,34.2,0000.0,0014.69,0005.03,0004.09
2023-07-24 22:46:00,SystemResetWarning,0834.4,4.99,000.00,030.3,025.4,000.0,037.6,030.3,35.1,0000.0,0015.01,0005.00,0004.09
2023-07-24 22:47:00,SystemResetWarning,0834.4,5.02,000.00,030.3,025.9,000.0,037.7,030.4,33.6,0000.0,0014.24,0004.99,0004.09
2023-07-24 22:48:00,SystemResetWarning,0834.4,4.99,000.00,030.4,026.4,000.0,037.8,030.6,32.5,0000.0,0013.02,0004.99,0004.11
2023-07-24 22:49:00,SystemResetWarning,0834.4,4.99,000.00,030.5,026.8,000.0,037.9,030.7,30.4,0000.0,0012.79,0005.04,0004.13
2023-07-24 22:50:00,SystemResetWarning,0834.4,5.00,000.00,030.5,027.2,000.0,037.9,030.8,29.3,0000.0,0012.88,0005.07,0004.14
2023-07-24 22:51:00,SystemResetWarning,0834.3,4.98,000.00,030.5,026.4,000.0,037.9,030.7,27.8,0000.0,0012.65,0005.09,0004.17
2023-07-24 22:52:00,SystemResetWarning,0834.4,5.01,000.00,030.5,025.0,000.0,037.8,030.5,27.1,0000.0,0012.66,0005.13,0004.19
2023-07-24 22:53:00,SystemResetWarning,0834.3,5.01,000.00,030.4,024.7,000.0,037.8,030.4,26.8,0000.0,0012.52,0005.14,0004.20
2023-07-24 22:54:00,SystemResetWarning,0834.5,5.00,000.00,030.3,025.1,000.0,037.9,030.2,25.5,0000.0,0012.99,0005.15,0004.21
2023-07-24 22:55:00,SystemResetWarning,0834.3,4.99,000.00,030.2,025.5,000.0,037.9,030.3,26.0,0000.0,0013.44,0005.15,0004.20
2023-07-24 22:56:00,SystemResetWarning,0834.4,5.00,000.00,030.2,026.0,000.0,038.0,030.4,26.0,0000.0,0013.20,0005.21,0004.21
2023-07-24 22:57:00,SystemResetWarning,0834.3,5.00,000.00,030.1,026.4,000.0,038.0,030.5,26.4,0000.0,0012.58,0005.25,0004.21
2023-07-24 22:58:00,SystemResetWarning,0834.4,5.00,000.00,030.1,026.9,000.0,038.0,030.7,26.3,0000.0,0012.84,0005.23,0004.20
2023-07-24 22:59:00,SystemResetWarning,0834.3,5.00,000.00,030.2,027.3,000.0,038.0,030.8,26.7,0000.0,0013.43,0005.29,0004.20
